Temperature
17 17 17 17 16 16 16 16 16 16 16 16 16 16 16 16 15 16 16 16 16 16 16 17 17 17 17 17 17 17 17 17 17 17 17 17 17 17 17 18 18 18 18
17 17 17 17 16 16 16 16 16 16 16 16 16 15 15 15 15 15 16 16 16 16 16 17 17 17 17 17 17 17 17 17 17 17 17 17 17 17 17 17 17 18 18
17 17 17 17 16 16 16 16 16 16 16 16 15 15 15 15 15 15 15 15 16 16 16 16 16 16 17 16 16 17 17 17 16 16 16 16 17 17 17 17 17 17 18
17 17 17 17 16 16 16 16 15 15 16 15 15 15 14 14 14 15 15 15 16 16 17 16 16 16 16 16 16 16 16 16 16 17 16 16 16 16 16 17 17 17 17
17 16 17 17 16 16 16 16 16 15 16 15 15 15 14 14 14 14 15 15 15 16 16 17 17 17 17 16 16 16 16 16 16 16 17 16 16 16 16 16 16 16 17
17 17 17 16 16 16 16 16 16 16 15 15 15 15 14 14 14 14 14 15 15 15 16 16 16 17 17 17 17 16 16 15 15 16 16 16 16 16 16 16 16 16 16
16 17 17 17 17 17 17 17 16 16 15 15 15 14 14 14 13 14 14 14 14 15 15 16 16 16 17 17 17 16 16 16 15 17 17 16 16 16 16 16 16 15 16
16 16 17 17 17 17 17 17 17 16 16 16 15 15 14 14 13 13 14 14 14 14 14 15 16 16 16 16 17 17 17 17 15 15 16 16 16 16 16 16 16 16 15
16 16 17 17 17 17 17 17 17 17 17 16 15 15 15 15 14 13 13 14 13 13 14 14 15 15 15 15 16 16 16 17 15 14 15 15 16 16 16 16 15 16 16
16 16 17 17 17 17 17 17 17 17 17 17 15 15 16 16 15 14 13 13 13 14 13 14 14 14 14 15 15 15 15 16 16 14 15 15 15 15 15 15 15 16 16
16 16 16 16 16 16 17 17 17 17 17 16 16 16 15 15 15 15 15 14 13 13 13 13 13 14 14 14 14 15 15 15 16 16 14 14 14 14 15 15 15 15 15
16 16 16 15 16 16 17 17 17 17 17 16 16 16 16 16 16 16 15 15 14 13 13 13 13 13 13 13 14 14 14 14 15 15 14 13 13 14 14 15 14 15 15
15 15 15 14 14 14 15 17 17 16 16 16 16 16 16 16 16 16 16 15 15 14 14 14 13 13 13 13 13 13 14 14 14 15 14 14 13 13 14 14 14 14 14
15 14 14 14 14 14 14 15 15 15 16 16 16 16 16 16 16 15 15 15 15 15 14 14 14 13 13 13 13 13 13 14 14 14 14 13 13 13 14 14 14 13 14
14 14 14 14 14 13 14 14 15 15 15 15 16 16 16 16 15 15 15 15 15 15 15 15 14 14 14 13 13 13 13 13 13 13 13 13 13 13 13 13 13 13 14
14 14 14 14 13 14 14 14 15 15 15 16 16 16 16 15 15 15 15 15 15 14 15 15 15 15 14 14 13 13 13 13 13 13 13 13 13 13 13 13 14 14 14
15 14 14 14 14 14 14 14 14 15 15 15 16 15 15 15 15 15 15 15 15 14 14 14 15 15 15 14 13 12 12 12 12 12 12 13 13 14 14 14 14 14 14
15 15 15 15 15 14 14 14 15 15 15 16 16 15 15 15 14 14 14 15 15 15 14 14 14 15 15 14 13 12 12 12 12 12 12 12 13 14 14 14 14 14 14
15 15 15 15 14 14 14 14 14 14 15 15 15 15 15 15 15 14 14 15 15 15 14 14 14 14 15 14 14 13 12 12 12 11 11 11 12 13 14 14 14 14 14
14 14 14 14 14 14 14 13 13 14 14 15 15 15 15 15 15 14 15 15 15 14 14 14 13 13 14 14 14 13 12 12 12 11 11 11 11 12 13 13 14 13 13
14 14 14 14 13 14 14 14 14 14 14 15 15 15 15 14 15 14 15 15 14 14 14 13 13 13 14 14 15 14 13 12 12 11 11 11 11 12 12 12 12 11 10
15 15 14 14 14 14 14 14 14 14 14 14 15 15 15 14 15 14 14 14 14 14 13 13 13 13 14 15 15 14 14 13 12 12 11 11 11 11 11 11 11 10 9
16 15 14 14 14 14 14 14 14 13 13 14 14 14 14 14 14 14 14 14 14 14 13 13 14 14 15 15 15 14 14 13 12 12 11 11 11 11 11 11 11 10 9
15 15 14 14 14 14 13 14 13 13 14 14 14 14 14 14 14 14 14 14 14 14 14 14 15 15 14 14 14 14 13 12 11 11 11 11 11 11 11 11 10 10 9
15 14 14 13 13 13 13 14 13 13 13 14 14 14 14 14 14 14 14 14 14 15 15 15 14 14 13 14 14 14 13 13 12 12 11 10 11 11 11 11 10 10 9
14 13 13 13 13 13 13 13 13 13 13 14 14 14 13 14 14 14 15 14 14 14 14 14 14 14 14 14 14 14 13 13 13 12 12 11 11 11 11 11 11 10 10
Wind_Speed
4 4 4 4 4 6 6 5 7 9 9 9 8 8 9 10 11 11 12 15 14 12 10 8 7 7 8 9 9 9 8 7 6 7 7 6 5 4 3 2 2 4 4
6 5 4 4 4 5 6 6 7 7 6 7 5 7 9 11 13 13 14 16 19 19 17 14 12 11 11 10 11 11 10 8 5 4 4 6 6 4 2 1 2 2 4
9 6 4 5 6 8 8 8 6 7 5 5 5 5 8 10 12 13 14 13 14 17 19 19 17 15 13 11 12 11 11 9 7 5 3 2 3 3 2 1 2 2 5
12 7 4 5 8 8 7 4 5 4 5 5 4 3 3 7 8 10 12 12 12 13 14 17 19 19 18 15 14 12 12 11 9 7 6 4 1 1 2 1 3 3 5
12 9 5 6 9 5 4 4 3 3 4 5 5 3 1 3 5 6 8 10 11 12 11 13 16 18 19 18 18 16 15 13 12 10 6 5 2 0 2 2 1 2 4
12 9 6 7 8 6 5 4 4 3 3 5 5 4 3 3 4 4 4 7 10 11 12 12 11 12 15 16 18 20 18 15 13 10 7 5 3 1 3 3 0 2 3
10 8 4 6 6 7 7 7 4 4 2 4 5 4 4 4 5 3 3 5 7 9 11 11 10 10 11 13 15 17 17 15 11 8 9 7 5 3 4 5 2 2 2
10 10 7 7 8 6 7 7 6 4 2 4 4 4 2 1 4 4 3 3 4 6 7 9 11 11 12 12 14 17 18 17 15 12 11 9 7 4 4 5 5 4 3
9 8 5 7 8 8 9 9 8 8 6 3 2 4 4 4 1 2 3 2 3 3 4 7 9 10 11 12 12 14 15 15 16 16 12 9 9 8 4 4 4 6 6
7 6 4 5 8 8 9 10 8 5 7 6 2 2 3 4 4 2 1 1 2 2 2 3 5 7 9 10 10 10 11 13 15 16 15 13 15 17 15 5 4 5 7
6 5 1 3 6 7 9 10 8 6 5 6 5 3 3 3 3 4 2 1 1 0 1 2 2 3 5 7 8 9 10 13 16 17 19 17 17 19 18 11 5 6 4
8 9 7 5 2 1 2 6 8 7 5 5 5 5 4 4 4 4 3 2 3 2 1 1 0 1 3 5 6 8 9 10 14 15 19 20 19 19 19 16 13 12 9
6 10 8 5 3 4 1 2 4 4 5 5 6 5 5 4 4 4 4 3 2 2 2 3 3 2 1 3 5 6 9 10 11 14 17 18 18 16 18 19 18 18 17
7 10 9 6 1 1 4 5 5 4 4 6 7 6 5 5 4 5 5 5 3 3 4 4 3 4 3 3 4 6 9 10 9 10 12 14 16 16 17 17 17 17 17
6 8 9 7 3 3 5 5 4 4 5 5 6 7 6 6 7 6 5 5 6 5 7 6 4 4 6 5 4 6 8 9 9 8 9 12 14 14 15 16 15 15 15
5 6 8 9 7 3 2 3 3 4 4 5 5 7 6 5 6 6 6 5 4 5 4 3 3 3 6 6 6 6 7 8 8 7 8 10 10 11 13 14 14 14 14
6 8 10 10 10 9 9 8 5 6 7 6 6 6 7 6 6 5 6 6 5 4 4 2 2 2 4 5 5 5 5 5 7 6 6 9 10 10 11 12 13 11 12
5 5 7 10 10 9 9 9 9 9 7 4 5 6 9 8 7 6 6 7 7 6 4 4 3 2 3 4 4 3 2 3 5 5 6 7 8 10 11 11 11 10 12
0 0 2 5 7 7 8 9 8 8 5 6 6 8 9 9 8 7 7 7 7 6 4 4 4 2 2 3 3 2 1 1 2 4 5 6 6 7 8 8 9 11 13
4 4 4 5 5 6 9 10 10 9 7 7 7 8 8 9 10 9 8 8 7 7 5 5 4 3 3 3 3 3 3 1 1 1 3 4 5 6 5 6 9 11 13
7 7 6 5 5 6 7 9 9 9 9 8 7 7 7 10 12 10 9 8 9 8 7 5 5 4 4 5 6 4 3 2 2 2 1 1 3 4 5 5 8 9 11
7 7 6 6 5 4 6 7 6 7 9 9 8 6 6 11 13 14 15 15 15 13 10 8 6 5 6 5 5 5 4 3 3 4 4 1 0 0 2 1 3 6 7
7 7 6 6 5 5 7 9 8 6 7 8 8 6 5 4 6 6 12 15 16 18 16 13 11 8 9 10 9 7 6 5 4 5 5 2 1 2 3 4 3 2 3
6 6 6 4 3 5 8 8 7 4 5 6 5 5 4 3 3 4 5 8 10 11 13 11 12 10 7 11 12 9 9 6 3 3 4 3 3 2 2 6 6 4 4
5 4 4 4 4 4 5 6 4 2 2 3 4 6 7 5 4 4 5 7 8 7 7 8 8 9 14 18 16 10 9 8 4 4 5 4 4 2 1 2 7 6 7
7 5 4 3 1 3 4 3 1 1 1 1 2 4 6 8 7 7 5 4 5 6 6 7 8 10 11 15 21 14 12 10 5 4 8 7 4 3 2 2 3 7 7
Wind_Direction
159 163 162 146 124 105 92 79 106 114 106 97 88 80 67 56 47 39 40 58 61 62 63 67 72 77 78 77 83 88 92 105 122 141 159 171 168 139 108 46 357 3 20
168 167 165 151 143 120 106 111 127 126 121 114 94 82 77 69 58 50 45 47 52 55 55 56 61 69 72 75 77 73 73 80 97 123 152 177 181 168 146 58 45 9 26
183 174 175 155 158 141 124 116 114 118 116 117 103 89 84 71 63 59 54 47 42 44 47 49 53 59 66 69 75 72 67 66 71 78 89 137 164 184 174 84 64 40 35
197 179 178 163 158 152 142 125 129 123 128 132 124 112 99 87 74 65 64 55 46 40 39 42 44 46 53 58 66 68 67 65 63 56 46 38 46 224 242 148 89 54 34
202 185 186 165 168 165 156 148 125 122 141 142 135 118 115 108 92 79 74 66 57 52 44 36 38 39 42 42 47 56 60 57 52 47 39 35 34 11 222 156 94 30 14
200 192 195 165 171 174 172 167 133 103 129 138 113 87 69 79 92 92 93 84 74 69 65 57 48 44 44 42 37 41 41 47 42 29 37 37 28 292 222 202 217 336 345
199 195 192 164 169 180 180 160 126 115 120 139 108 84 58 65 69 56 80 94 82 77 72 66 59 54 50 47 43 39 32 32 33 31 34 25 15 326 256 228 212 292 327
203 205 186 176 173 164 154 155 145 123 156 184 129 128 109 43 42 41 57 68 72 69 62 60 59 52 48 47 44 41 32 19 28 37 29 21 18 2 315 258 214 229 251
211 207 193 181 171 171 174 173 161 156 157 190 170 141 159 190 150 30 41 59 55 48 49 55 55 53 50 49 49 48 41 29 26 30 25 33 44 40 14 319 280 250 245
210 209 216 201 189 182 180 179 166 160 148 164 157 114 124 145 145 150 356 10 52 53 32 42 50 54 53 51 50 55 51 43 34 29 32 57 55 41 27 14 335 294 252
131 110 78 199 207 198 185 172 166 162 148 160 162 153 123 98 116 135 176 241 289 299 25 39 42 51 61 57 50 51 49 42 42 36 44 48 45 34 19 29 44 24 10
120 102 76 74 54 356 204 170 163 163 151 158 167 162 159 160 170 149 152 185 204 223 206 163 224 8 60 64 54 56 59 52 52 45 46 46 43 33 25 42 54 44 35
139 117 101 70 47 60 81 153 152 173 175 182 180 182 185 176 153 149 144 150 171 209 213 215 205 194 102 71 63 60 65 58 57 55 54 49 45 38 35 40 48 49 48
148 135 128 114 115 181 187 176 173 191 201 204 187 181 191 188 181 172 160 149 148 188 217 222 196 194 163 109 73 63 63 60 50 54 62 59 49 40 38 41 42 43 41
161 150 139 131 187 233 201 174 148 183 205 216 206 197 196 191 194 191 175 168 159 188 214 204 185 189 169 140 103 73 66 65 60 45 56 73 59 42 35 33 32 33 30
167 166 154 164 175 188 213 232 159 181 211 226 206 197 201 192 196 192 186 185 171 174 188 160 179 172 170 145 117 86 70 62 61 47 41 56 64 48 39 32 27 31 33
193 188 181 181 185 194 205 213 208 219 218 212 200 195 213 201 196 185 179 175 175 163 153 158 148 163 148 153 118 92 80 67 55 44 40 48 59 56 45 34 31 33 35
208 189 179 176 182 198 203 199 202 226 231 223 226 214 222 198 203 190 186 190 189 180 154 159 153 151 158 158 133 118 93 78 64 47 27 27 41 51 51 37 32 37 42
222 297 195 181 184 189 206 211 202 224 220 218 223 224 224 191 202 194 193 196 192 180 160 143 147 148 151 146 127 127 141 89 85 63 31 22 25 33 48 50 50 53 59
191 201 199 188 195 202 204 212 209 208 218 216 213 219 225 201 203 192 193 191 179 173 163 147 141 155 152 144 145 165 181 205 186 54 40 24 11 13 34 63 78 74 76
190 190 190 203 218 221 213 203 207 205 223 236 220 194 212 228 223 205 190 179 171 173 170 160 152 157 156 163 188 171 166 170 224 206 174 18 11 7 9 53 86 87 85
193 188 195 221 238 242 258 259 227 200 215 223 227 203 208 230 227 214 202 190 182 180 183 184 171 174 176 163 155 153 145 161 212 193 170 176 13 358 325 5 87 106 101
185 190 194 207 234 258 267 259 249 224 218 215 208 192 202 206 213 215 212 203 195 193 188 187 190 181 173 178 157 159 169 172 188 174 156 165 177 215 240 249 272 191 127
188 188 197 202 244 277 284 295 295 240 214 219 207 176 175 193 184 217 219 199 194 201 200 192 195 187 165 160 167 169 167 144 107 157 168 170 181 209 231 243 252 237 192
158 167 163 182 207 259 287 296 294 256 239 220 184 179 161 147 158 163 181 187 183 190 191 175 163 164 162 161 154 137 145 162 174 190 190 182 181 191 231 242 239 237 212
126 131 139 131 177 271 287 280 171 133 162 152 189 203 177 151 135 132 128 152 191 199 172 148 146 157 163 171 172 171 168 175 162 188 195 177 175 169 208 250 242 230 223
Height
1538 1539 1542 1544 1547 1549 1550 1552 1553 1553 1553 1554 1555 1555 1554 1553 1553 1553 1552 1551 1551 1551 1550 1549 1549 1549 1549 1549 1549 1549 1549 1549 1550 1550 1551 1552 1552 1553 1553 1554 1554 1554 1554
1538 1540 1542 1545 1548 1550 1551 1552 1554 1554 1554 1555 1556 1556 1555 1556 1555 1554 1554 1554 1553 1553 1552 1551 1551 1550 1549 1550 1549 1549 1549 1549 1550 1550 1550 1551 1552 1552 1553 1554 1554 1555 1554
1537 1540 1542 1544 1547 1550 1551 1553 1554 1555 1555 1556 1557 1558 1557 1557 1558 1557 1557 1557 1556 1555 1555 1555 1554 1552 1551 1551 1550 1550 1550 1550 1550 1550 1550 1550 1551 1551 1552 1554 1555 1555 1555
1535 1538 1541 1544 1547 1549 1551 1553 1554 1554 1555 1557 1558 1559 1559 1559 1560 1559 1559 1559 1559 1558 1558 1557 1556 1555 1554 1554 1553 1552 1551 1551 1551 1550 1550 1550 1551 1551 1552 1554 1555 1556 1556
1533 1536 1539 1543 1546 1548 1550 1552 1554 1555 1555 1557 1558 1559 1560 1560 1561 1561 1560 1561 1560 1560 1559 1559 1558 1557 1556 1555 1555 1554 1553 1552 1551 1551 1551 1550 1551 1551 1552 1554 1555 1555 1555
1532 1534 1537 1540 1543 1544 1547 1550 1553 1554 1556 1557 1559 1560 1560 1561 1561 1562 1562 1562 1562 1561 1561 1560 1559 1558 1558 1557 1556 1555 1554 1553 1552 1552 1551 1551 1550 1551 1552 1553 1554 1554 1555
1529 1532 1534 1537 1539 1541 1544 1547 1550 1553 1555 1556 1558 1560 1561 1561 1562 1562 1563 1563 1563 1562 1562 1561 1561 1560 1558 1557 1556 1556 1555 1554 1553 1552 1551 1551 1551 1551 1551 1552 1553 1553 1554
1524 1527 1530 1533 1536 1538 1541 1544 1547 1549 1552 1555 1557 1559 1561 1563 1562 1562 1563 1563 1564 1563 1563 1562 1562 1561 1560 1558 1557 1557 1556 1555 1554 1553 1552 1552 1551 1551 1551 1552 1552 1553 1553
1519 1521 1525 1529 1532 1535 1537 1540 1544 1547 1549 1552 1555 1557 1558 1559 1561 1562 1563 1563 1563 1563 1563 1563 1562 1562 1561 1560 1559 1559 1558 1556 1555 1555 1554 1553 1553 1552 1551 1551 1551 1551 1552
1514 1516 1521 1525 1528 1531 1534 1537 1541 1544 1547 1550 1552 1554 1557 1557 1558 1560 1562 1562 1562 1562 1563 1563 1562 1563 1562 1561 1560 1560 1558 1557 1556 1555 1556 1555 1554 1552 1551 1550 1550 1550 1550
1507 1509 1514 1518 1523 1527 1530 1534 1538 1541 1544 1547 1550 1552 1554 1555 1556 1558 1559 1561 1561 1561 1561 1561 1562 1562 1562 1562 1561 1560 1558 1557 1557 1556 1556 1555 1554 1552 1552 1551 1549 1548 1549
1500 1502 1507 1511 1515 1520 1525 1528 1533 1537 1541 1544 1547 1549 1551 1553 1554 1556 1557 1558 1559 1560 1560 1560 1561 1561 1561 1561 1561 1560 1559 1558 1557 1555 1554 1553 1552 1552 1552 1550 1549 1548 1548
1494 1496 1502 1508 1511 1515 1521 1524 1529 1533 1537 1541 1543 1546 1548 1549 1551 1553 1555 1556 1556 1558 1558 1559 1560 1560 1560 1560 1560 1560 1559 1558 1556 1555 1554 1553 1552 1551 1551 1550 1549 1549 1548
1490 1491 1496 1502 1509 1514 1518 1521 1525 1529 1533 1537 1540 1542 1544 1546 1548 1550 1552 1553 1554 1555 1556 1558 1558 1558 1559 1558 1559 1559 1558 1557 1556 1555 1554 1554 1552 1551 1550 1549 1548 1548 1548
1489 1490 1494 1498 1505 1509 1513 1517 1521 1526 1530 1534 1536 1538 1540 1542 1544 1546 1547 1549 1552 1552 1553 1555 1556 1556 1557 1557 1557 1557 1557 1556 1555 1555 1554 1553 1552 1551 1550 1549 1549 1549 1548
1490 1491 1492 1495 1501 1507 1510 1515 1521 1523 1527 1530 1532 1533 1535 1538 1540 1542 1543 1545 1547 1550 1550 1552 1553 1554 1554 1554 1555 1555 1555 1555 1554 1553 1553 1552 1551 1550 1549 1550 1549 1549 1549
1491 1492 1493 1496 1500 1506 1511 1515 1520 1523 1527 1528 1528 1530 1532 1534 1536 1537 1539 1540 1543 1545 1546 1548 1550 1550 1551 1551 1552 1552 1552 1552 1552 1552 1552 1551 1550 1549 1549 1549 1548 1549 1548
1492 1494 1495 1497 1501 1505 1509 1513 1518 1521 1523 1524 1525 1526 1527 1528 1530 1531 1533 1535 1537 1540 1542 1544 1546 1547 1548 1548 1548 1549 1549 1550 1549 1550 1550 1549 1549 1548 1548 1548 1548 1548 1548
1491 1493 1495 1499 1501 1505 1509 1513 1515 1517 1518 1520 1521 1521 1521 1522 1524 1526 1528 1529 1532 1534 1537 1539 1541 1543 1545 1545 1545 1546 1546 1547 1547 1547 1548 1548 1547 1546 1546 1546 1546 1546 1546
1489 1492 1495 1497 1499 1502 1504 1507 1510 1511 1513 1514 1515 1515 1516 1516 1519 1521 1522 1524 1526 1528 1531 1533 1536 1539 1540 1541 1542 1543 1543 1544 1544 1545 1545 1545 1545 1544 1544 1544 1544 1544 1544
1487 1489 1492 1494 1497 1499 1502 1503 1505 1506 1508 1510 1510 1510 1511 1512 1514 1515 1517 1518 1519 1521 1524 1527 1529 1532 1534 1535 1538 1540 1541 1542 1542 1542 1542 1542 1542 1543 1543 1542 1542 1542 1542
1483 1486 1488 1490 1492 1495 1496 1498 1500 1501 1502 1504 1505 1505 1506 1508 1509 1510 1511 1513 1514 1515 1517 1520 1523 1526 1528 1532 1535 1536 1538 1539 1539 1539 1539 1539 1540 1541 1541 1541 1541 1541 1541
1480 1482 1483 1485 1488 1489 1490 1492 1494 1495 1496 1498 1498 1498 1500 1502 1504 1505 1507 1507 1508 1509 1512 1516 1517 1520 1524 1528 1531 1533 1534 1535 1536 1536 1536 1536 1537 1538 1538 1539 1539 1539 1540
1475 1478 1480 1481 1483 1485 1486 1488 1489 1489 1490 1491 1492 1493 1495 1498 1499 1499 1501 1502 1504 1506 1508 1510 1512 1517 1522 1525 1527 1529 1531 1533 1534 1534 1534 1534 1534 1535 1536 1536 1537 1538 1540
1469 1473 1475 1477 1479 1480 1482 1483 1485 1485 1486 1487 1488 1489 1490 1493 1495 1495 1496 1498 1500 1502 1504 1506 1509 1512 1516 1519 1521 1524 1525 1527 1528 1530 1531 1531 1531 1532 1533 1533 1534 1536 1538
1464 1468 1470 1472 1475 1477 1477 1479 1481 1482 1482 1483 1484 1485 1486 1489 1491 1491 1492 1493 1495 1499 1500 1501 1503 1507 1511 1514 1516 1519 1521 1523 1525 1527 1528 1528 1527 1529 1530 1530 1531 1533 1536